sat.trackr.live / text

‹ back to catalog

STARLINK-31547

NORAD 59364 · 2024-060S

PAYLOAD ACTIVE UNKNOWN

§ Identity

Operator
Country
US
Launch date
2024-03-31
Launch site
AFETR
Launch vehicle
Mass (kg)
RCS (m²)

Purposes: comms

External: N2YO · Heavens-Above · Gunter

§ Orbital elements

Epoch: 2026-05-25T02:57:01.966752Z

Period
94.27 min
Inclination
43.0000°
Eccentricity
0.0001282
Mean motion
15.27573112 rev/d
Perigee alt
482.2 km
Apogee alt
483.9 km
Semi-major
6,861.2 km
B*
4.1669e-6
RAAN
176.8391°
Arg perigee
277.6613°
Mean anomaly
82.4093°
Rev number
12,188

§ Raw data

STARLINK-315471 59364U 24060S   26145.12293943 -.00000147  00000+0  41669-5 0  99932 59364  43.0000 176.8391 0001282 277.6613  82.4093 15.27573112121886

JSON: /api/v1/satellites/59364 · /tle

For live sub-satellite position, see the globe view (requires WebGL).

§ Visibility from observer

Set your observer location to see the next 7 days of passes ≥ 10°. The values pass through the URL so the page stays shareable.

No JS? Fill the form by hand. The geolocation button needs JavaScript.